Location: Les Thiberg�res
(47.8554°N, 1.0978°W)
Time: 09:22:55
(UTC+00:00)

Cosmos 1140 Rocket - Pass Details

Date: 17 February 2020
Orbit: 745 x 767 km, 74.1° (Epoch: 27 March)

Event Time Altitude Azimuth Distance (km) Brightness Sun altitude
Rises 06:33:37 0° 217° (SW) 3,220 6.5 -6.5°
Reaches altitude 10° 06:36:04 10° 223° (SW) 2,300 5.7 -6.1°
Maximum altitude 06:41:07 49° 298° (WNW) 983 3.7 -5.2°
Drops below altitude 10° 06:46:14 10° 14° (NNE) 2,317 6.0 -4.4°
Sets 06:48:42 0° 20° (NNE) 3,246 6.8 -4.0°
